Zurück zum Katalog

COSMOS 839 DEB

AktivUNKNOWN
NORAD 10442·DEBRIS·🇷🇺 Russia

Gestartet Jul 8, 1976 von Plesetsk Cosmodrome

Loading…

Nächste Überflüge (nächste 24 Stunden)

TLE

AktuellSource: Space-Track

Epoche: Sep 14, 2026, 14:03 UTC

1 10442U 76067T   26257.58584758  .00000060  00000-0  57858-3 0  9991
2 10442  66.0090 302.6350 0648771  56.9851  17.6965 12.16688873230155

Verfolge COSMOS 839 DEB in Echtzeit mit AllMySat

Download on the App Store